Miscellaneous Local Product
Issued by NWS Hastings, NE

Home | Current Version | Previous Version | Graphics & Text | Print | Product List | Glossary On
Versions: 1 2 3 4 5 6 7 8 9 10 11 12 13 14 15 16 17 18 19 20 21 22 23 24 25 26 27 28 29 30 31 32 33 34 35 36 37 38 39 40 41 42 43 44 45 46 47 48 49 50
000
AXUS43 KGID 251102
MISGRI

GID CWA HOURLY WEATHER ROUNDUP
NATIONAL WEATHER SERVICE HASTINGS NE
600 AM CDT TUE JUL 25 2017

NOTE: "FAIR" INDICATES FEW OR NO CLOUDS BELOW 12,000 FEET WITH NO
SIGNIFICANT WEATHER AND/OR OBSTRUCTIONS TO VISIBILITY.

...SOUTH CENTRAL NEBRASKA...

CITY           SKY/WX    TMP DP  RH WIND       PRES   REMARKS
GRAND ISLAND   CLEAR     72  68  87 S9        29.98S
HASTINGS       CLEAR     72  65  78 S7        30.00S
KEARNEY        CLEAR     70  64  81 S9        29.99S
ORD            CLEAR     74  61  63 S6        29.95R
YORK           CLEAR     72  72 100 S7        29.99R
AURORA         CLEAR     72  70  93 S12       29.99R
LEXINGTON      PTCLDY    70  60  70 S8        29.98S
HOLDREGE       CLEAR     70  61  74 S5        30.00R
HEBRON         CLEAR     73  70  91 S6        30.00S

...NEBRASKA PANHANDLE...

CITY           SKY/WX    TMP DP  RH WIND       PRES   REMARKS
CHADRON        CLEAR     72  55  55 S7        29.86S
ALLIANCE       PTCLDY    68  58  70 SE8       29.94R
SCOTTSBLUFF    CLOUDY    75  56  51 N6        29.94S
SIDNEY         CLOUDY    74  60  61 SW14      30.00R

...WESTERN AND NORTH CENTRAL NEBRASKA...

CITY           SKY/WX    TMP DP  RH WIND       PRES   REMARKS
VALENTINE      CLEAR     69  57  65 CALM      29.88S
AINSWORTH      CLEAR     74  56  54 S10       29.90S
ONEILL         CLEAR     73  65  76 S13       29.91S
BROKEN BOW     CLEAR     72  58  61 S7        29.97R
IMPERIAL       PTCLDY    72  62  71 S7        29.98R
NORTH PLATTE   CLEAR     76  60  57 SE7       29.96R
MCCOOK         CLEAR     74  62  66 SW5       29.97R

...EASTERN NEBRASKA...

CITY           SKY/WX    TMP DP  RH WIND       PRES   REMARKS
NORFOLK        CLEAR     73  69  87 S9        29.95R
SO SIOUX CITY  CLEAR     70  67  90 SE7       29.96R
TEKAMAH        PTCLDY    71  65  81 S7        29.97R
COLUMBUS       CLEAR     74  70  87 S8        29.97R
ALBION         CLEAR     73  69  86 S6        29.96R
OMAHA EPPLEY   PTCLDY    74  64  71 S18       29.99S
OFFUTT AFB     CLEAR     72  66  80 SE10      29.99F
MILLARD        CLEAR     74  69  84 SE10      30.00S
LINCOLN        CLEAR     72  68  87 S9        29.99R
NEBRASKA CITY  CLEAR     71  70  98 S10       30.02S
BEATRICE       CLEAR     73  70  88 S9        30.00S
FALLS CITY     CLEAR     69  67  93 SE7       30.03R

...NORTHERN KANSAS...

CITY           SKY/WX    TMP DP  RH WIND       PRES   REMARKS
GOODLAND       CLEAR     70  65  84 S13       30.02R
HILL CITY      CLEAR     72  62  71 S9        30.00R
NORTON         SUNNY     70  55  60 S6        29.99R
PHILLIPSBURG   CLEAR     73  63  68 S3        29.99R
SMITH CENTER   PTCLDY    68  63  83 SE7       30.00R
HAYS             N/A     70  63  78 S6        30.01R
RUSSELL        CLEAR     70  64  81 S10       30.00R
CONCORDIA      CLEAR     73  69  87 S9        30.01R
SALINA         CLEAR     73  68  84 S8        30.01R
TOPEKA         CLEAR     72  70  93 SE3       30.03S



USA.gov is the U.S. government's official web portal to all federal, state and local government web resources and services.